Regional Weather Roundup
Issued by NWS Midland/Odessa, TX

Skip options and go directly to product.
Home | Oldest Version | Previous Version | Current Version | All | Text Only | Save Text | Print | Product List | Glossary Off

Skip product version selection by date and time.   

656
ASUS44 KMAF 222210
RWRMAF
MIDLAND AREA WEATHER ROUNDUP
NATIONAL WEATHER SERVICE MIDLAND TX
400 PM CST MON DEC 22 2014

...IN SOUTHWEST TEXAS AND SOUTHEAST NEW MEXICO...

CITY           SKY/WX    TMP DP  RH WIND       PRES   REMARKS
ALPINE         PTSUNNY   65  30  27 W21G28    29.80F
ANDREWS        FAIR      61  33  35 CALM      29.64F
ARTESIA        SUNNY     70  32  24 SW18      29.60F
BIG SPRING     CLOUDY    61  32  33 N7        29.65F
CARLSBAD       SUNNY     71  30  21 W20G29    29.60F
DRYDEN           N/A     80  29  15 SW22      29.61F
FORT STOCKTON  CLOUDY    71  30  21 NW12      29.67F
GUAD PASS      NOT AVBL
HOBBS          SUNNY     59  32  36 CALM      29.64F
MARFA          PTSUNNY   64  30  27 W20       29.81F
MIDLAND AIRPK  CLOUDY    62  35  35 E3        29.65F
MIDLAND INTL   CLOUDY    63  35  35 N3        29.64F
ODESSA         CLOUDY    62  33  33 E3        29.65F
PECOS          CLOUDY    71  33  24 W21G26    29.64F
PRESIDIO       FAIR      73  31  21 S8        29.72F
SEMINOLE       CLOUDY    58  33  39 NE5       29.65F
SNYDER         CLOUDY    57  35  43 N5        29.67S
WINK           PTSUNNY   71  30  21 W14       29.62F
$$
...OTHER STATIONS IN TEXAS...

CITY           SKY/WX    TMP DP  RH WIND       PRES   REMARKS
ABILENE        PTSUNNY   64  36  35 N13       29.65F
AMARILLO       CLOUDY    48  23  37 N18       29.72S
AUSTIN         CLOUDY    70  55  59 S6        29.60F
BROWNSVILLE    SUNNY     76  63  64 S18G26    29.66F
CORPUS CHRISTI MOSUNNY   77  60  55 SW8       29.63F
DALLAS FTW     CLOUDY    60  45  57 NW16      29.60R
DEL RIO        PTSUNNY   60  53  77 CALM      29.64F
EL PASO        MOSUNNY   66  33  29 W15G25    29.74F
HOUSTON INT    CLOUDY    71  60  68 W6        29.62S
LUBBOCK        CLOUDY    53  28  38 NE12      29.68S
SAN ANGELO     PTSUNNY   69  34  27 NW14      29.63F
SAN ANTONIO    CLOUDY    71  51  49 W8        29.63F
WACO           CLOUDY    68  38  33 NW14G21   29.59R
WICHITA FALLS  NOT AVBL
$$
...OTHER LOCATIONS IN NEW MEXICO...

CITY           SKY/WX    TMP DP  RH WIND       PRES   REMARKS
ALAMAGORDO     MOSUNNY   64  32  29 SW5       29.70F
ALBUQUERQUE    CLOUDY    57  30  35 W41G55    29.71R
CANNON AFB     MOSUNNY   50  25  36 E12       29.67S
CLOVIS         PTSUNNY   48  25  40 E9        29.68S
HOLLOMAN AFB   MOSUNNY   65  32  28 SW13      29.67F
ROSWELL        MOSUNNY   70  27  20 W10G21    29.59F
RUIDOSO        SUNNY     54  27  35 NW21G40   29.73R
SANTA FE       PTSUNNY   50  30  46 W24G38    29.63F
TRUTH OR CONSE SUNNY     66  30  26 W10       29.70F
TUCUMCARI      CLOUDY    48  20  32 NE15      29.69R
$$

USA.gov is the U.S. government's official web portal to all federal, state and local government web resources and services.